Location: Kerb�bon
(47.7970°N, 3.3487°W)
Time: 13:28:48
(UTC+00:00)

BREEZE-M R/B - Pass Details

Date: 12 May 2021
Orbit: 311 x 4501 km, 49.7° (Epoch: 18 June)

Event Time Altitude Azimuth Distance (km) Brightness Sun altitude
Rises 22:03:26 0° 276° (W) 2,072 6.3 -18.0°
Reaches altitude 10° 22:05:17 10° 281° (W) 1,205 5.1 -18.2°
Maximum altitude 22:07:40 54° 2° (N) 412 2.4 -18.4°
Enters shadow 22:08:21 39° 56° (NE) 544 2.8 -18.5°
